Wind_Speed
17 15 14 12 10 10 10 10 9 9 9 9 9 8 6 6 7 9 11 10 10 12 12 11 12 12 12 11 10 8 6 5 4 5 6 7 7 7 7 6 5 4 4 4 4 4 3 3 2 2 3 3 2 2 2 2 1 0 2 2 2 2 3 3 4 4 5 6 6 5 4 5 4 5 5 5 5 4 4 4 3 2 2 1 1
16 14 13 13 11 10 10 10 10 9 9 9 9 9 9 11 11 11 12 11 11 13 12 11 12 13 13 12 11 9 6 5 4 4 6 6 6 6 6 5 4 3 3 3 3 3 2 2 2 2 2 2 2 2 2 2 1 1 1 1 2 2 3 4 4 4 5 6 6 6 5 5 4 5 5 5 5 5 5 5 5 5 4 3 0
13 13 14 14 12 11 11 10 9 8 8 9 9 9 9 9 10 9 10 10 9 10 11 11 11 12 14 13 10 9 8 7 6 4 6 5 4 5 5 4 4 3 2 2 1 2 2 1 2 2 2 2 3 2 2 2 2 1 2 2 2 3 4 4 5 5 5 7 7 6 6 5 4 4 5 5 6 5 4 5 7 7 6 3 1
14 15 14 14 13 11 11 10 9 8 7 8 9 8 8 7 7 8 8 9 9 10 11 10 10 11 13 10 8 10 11 10 7 5 6 5 4 4 4 4 3 3 2 2 2 1 1 1 1 1 2 3 3 4 3 3 3 3 3 3 3 4 4 4 5 5 6 7 6 6 6 6 5 5 5 5 5 5 5 5 7 9 7 3 2
15 15 15 14 14 12 13 12 10 9 8 8 9 9 9 7 6 7 8 9 9 11 11 10 10 10 10 9 7 9 12 12 10 6 5 5 4 4 4 4 4 4 3 3 2 1 1 0 1 1 2 3 3 4 3 3 3 3 3 4 5 5 5 5 6 6 6 7 6 6 6 5 5 5 5 5 6 6 6 6 8 9 7 5 4
16 16 15 15 14 14 14 13 11 11 10 9 8 8 9 7 5 5 7 8 8 9 11 10 9 10 10 8 6 5 8 14 12 5 4 3 3 2 3 3 3 3 2 2 2 2 1 1 1 1 2 2 3 3 3 3 3 3 3 4 5 5 5 6 7 7 6 7 6 6 5 5 5 5 6 6 6 7 7 7 8 8 7 6 6
16 16 16 15 14 15 14 13 13 13 11 9 8 7 8 6 5 5 6 7 8 7 9 10 9 10 10 7 6 5 6 12 11 7 5 2 0 1 1 1 2 2 1 2 3 4 3 3 2 3 3 3 3 4 4 4 4 3 3 4 4 4 5 5 6 6 5 6 6 5 5 5 5 6 6 6 7 7 6 7 8 8 7 6 6
16 15 15 15 14 14 13 12 13 12 11 9 8 7 7 6 5 7 7 8 9 8 9 9 8 9 9 8 8 6 5 8 10 8 4 1 2 3 2 2 2 2 1 3 3 4 5 5 4 5 4 4 4 4 4 4 4 4 4 4 4 4 4 4 4 4 5 5 5 5 5 5 6 6 7 6 7 7 6 6 7 7 6 5 5
16 14 14 13 13 13 12 11 12 12 11 10 9 7 5 6 6 8 9 8 8 7 7 8 8 8 9 9 7 7 6 7 9 7 5 5 6 5 4 4 2 1 1 2 3 2 4 5 4 5 6 7 7 6 6 5 5 5 4 4 4 4 4 4 4 4 5 5 5 5 5 6 6 7 7 7 8 8 8 7 8 8 7 6 5
15 14 14 14 13 12 11 9 11 11 11 11 9 7 5 6 7 7 7 6 5 4 4 6 8 7 8 8 5 6 7 7 7 6 6 9 8 8 8 6 4 2 1 1 1 1 2 3 2 4 5 7 8 8 8 7 7 6 5 5 5 5 5 5 5 5 5 5 5 5 5 6 6 7 8 8 9 9 10 10 10 10 9 8 6
15 14 14 14 14 13 11 9 10 10 9 10 9 7 6 7 7 6 5 5 5 5 5 5 7 8 8 7 5 7 7 6 7 7 8 10 8 9 11 9 6 3 3 4 2 2 1 2 1 2 4 5 7 8 8 8 9 9 8 7 6 6 6 6 5 5 5 5 5 5 5 6 7 8 9 10 11 11 12 11 11 10 10 10 8
15 14 13 14 14 13 11 10 10 9 9 9 9 7 6 7 7 5 4 5 5 6 5 4 5 8 8 6 5 5 6 6 8 9 9 10 9 8 10 12 8 3 4 6 5 3 1 3 2 2 3 5 6 7 7 8 9 10 9 8 7 7 7 7 6 6 6 5 6 6 7 7 8 9 11 12 13 13 13 13 12 10 10 11 10
15 14 13 13 14 13 12 11 10 9 9 9 9 7 6 6 6 4 5 5 5 5 5 4 5 6 5 5 5 5 7 6 7 10 10 10 11 10 9 12 10 4 4 7 7 5 1 2 1 1 2 4 6 6 7 7 8 10 10 9 8 9 9 8 8 7 7 8 8 9 9 10 11 12 12 13 13 13 13 13 12 11 10 10 10
14 14 15 13 13 13 12 11 11 10 9 8 8 6 6 6 6 4 4 4 3 4 4 3 3 5 5 4 4 4 7 7 7 11 12 11 12 10 9 12 12 7 6 7 7 6 3 1 1 1 2 3 4 5 6 6 7 9 10 10 10 10 10 10 11 11 11 11 11 11 12 12 12 12 12 12 11 11 11 10 10 9 8 8 8
13 14 15 15 14 13 12 11 10 9 8 9 9 7 6 6 5 4 4 3 2 3 4 2 1 5 4 1 2 1 4 8 10 12 13 14 14 11 9 12 12 10 9 7 7 6 4 2 1 3 3 3 3 4 5 5 6 8 10 11 11 11 11 12 13 13 12 12 11 11 11 11 10 10 10 10 10 10 10 10 9 9 7 6 6
13 14 14 14 14 13 13 11 9 8 8 10 10 9 7 6 6 5 4 3 1 3 4 1 2 4 2 0 1 1 1 5 8 9 9 12 15 11 11 14 14 14 10 7 7 6 6 4 1 1 0 2 4 4 4 5 6 8 11 12 11 11 12 13 13 12 12 11 11 10 10 10 10 9 9 9 10 10 10 10 9 9 7 6 6
13 14 12 12 13 13 12 10 9 9 10 10 10 9 7 7 6 6 5 3 2 3 2 1 3 4 2 0 0 2 2 3 3 4 3 7 15 12 11 13 13 14 11 7 8 9 8 6 3 3 5 5 5 5 3 4 6 8 10 11 11 12 13 13 12 12 12 12 11 11 11 10 10 10 10 10 9 9 9 9 8 8 8 7 7
12 12 11 11 11 11 11 10 10 10 10 11 11 9 9 8 6 6 5 2 1 3 2 1 3 4 1 2 2 1 4 3 2 2 2 4 11 13 12 12 11 11 10 9 11 11 8 6 4 4 6 5 6 6 4 5 7 8 9 11 11 13 14 12 12 12 12 12 11 11 11 11 11 10 10 9 9 9 9 8 8 8 8 7 7
13 12 11 11 11 11 11 11 11 11 11 11 12 11 10 8 8 7 6 3 1 3 4 2 3 5 3 5 5 4 5 3 1 1 1 2 7 11 12 11 10 8 10 12 11 10 9 7 4 3 4 4 5 7 4 3 4 6 9 10 10 14 15 13 12 12 12 12 11 11 11 11 10 10 10 10 9 9 8 8 9 9 8 8 8
13 12 12 12 12 11 11 11 11 10 10 10 12 12 9 9 9 8 7 6 4 2 3 3 3 3 4 5 4 4 4 3 3 2 2 1 1 4 7 9 9 8 9 11 11 9 9 7 6 3 3 4 4 4 2 2 3 6 9 9 9 14 17 15 12 12 12 12 12 12 11 11 11 10 10 10 9 8 8 9 9 9 9 9 9
13 13 12 12 12 11 11 12 11 9 9 10 10 9 9 10 10 9 9 8 6 4 3 3 2 2 4 2 1 3 5 4 5 3 2 2 1 1 4 8 8 7 8 10 8 6 7 6 5 5 4 4 3 1 2 5 5 7 9 8 9 15 17 16 13 12 13 13 13 12 12 11 11 11 11 10 8 8 8 8 8 9 9 9 9
14 14 13 11 11 11 10 11 10 9 10 9 8 7 9 12 11 10 10 10 8 6 5 3 1 0 2 3 3 3 4 4 5 5 3 3 1 4 2 6 6 6 8 12 8 6 6 5 4 7 5 3 2 1 5 6 5 6 9 8 9 14 16 15 14 14 14 13 12 12 12 12 12 11 10 8 7 7 7 9 10 10 10 9 9
15 14 12 10 10 10 10 10 9 9 10 9 7 8 10 11 10 9 9 10 9 6 5 4 2 1 1 3 5 3 3 5 5 4 4 4 2 4 6 2 5 6 9 12 8 4 6 6 7 9 5 1 3 4 5 5 5 6 8 9 9 12 14 14 15 16 15 13 13 13 12 12 11 10 8 7 7 7 8 10 11 11 10 10 10
14 14 12 10 9 9 9 9 9 9 10 9 8 10 10 10 10 9 9 10 9 6 6 6 4 3 2 3 5 4 5 8 8 4 2 4 2 2 6 2 3 3 7 8 5 4 7 9 9 7 2 2 3 4 3 3 4 5 9 10 9 10 11 12 14 16 16 14 13 13 12 11 9 8 7 7 7 9 11 12 12 12 11 11 11
13 14 13 12 11 11 11 10 9 8 9 10 10 10 10 10 11 11 11 11 9 7 7 8 7 5 4 5 5 6 7 10 10 6 4 4 3 2 4 5 5 2 4 6 5 5 9 12 9 4 2 2 3 4 3 2 1 4 9 10 9 8 9 11 13 15 16 15 15 14 11 9 8 7 7 7 9 11 13 14 13 12 12 12 13
14 15 14 13 13 13 14 12 11 10 10 11 11 11 11 11 11 12 11 10 10 9 9 9 8 7 7 7 7 6 7 9 9 6 8 3 2 4 4 4 6 6 2 5 7 6 7 11 8 5 3 2 5 5 3 2 2 3 7 10 9 7 7 9 11 13 15 16 15 13 11 8 7 7 7 8 10 12 13 14 13 12 12 13 14
16 16 15 15 14 14 15 13 12 12 12 11 11 12 13 11 11 12 10 10 10 10 10 10 9 8 8 7 7 8 8 9 11 4 4 5 6 6 6 4 4 6 5 3 5 4 6 11 9 5 2 2 2 1 2 2 2 5 7 10 10 7 6 8 10 11 13 15 15 13 10 8 7 6 7 8 10 12 13 13 12 11 11 13 14
15 16 17 17 16 15 15 13 12 13 13 11 11 13 13 11 11 12 11 10 10 10 10 10 9 9 8 7 8 10 10 6 8 6 2 6 5 2 5 5 3 2 4 4 2 1 4 8 9 4 1 1 2 3 2 2 4 5 7 10 10 8 7 8 10 10 10 12 13 12 10 8 7 5 6 8 9 11 12 12 11 10 11 12 13
15 15 16 17 17 16 15 14 12 13 13 12 12 12 12 12 11 11 12 10 10 11 11 10 10 9 9 8 9 10 10 6 3 5 2 3 2 1 1 3 2 1 1 2 4 3 5 4 4 5 2 2 1 2 1 2 5 5 7 11 10 8 8 9 10 10 9 9 11 12 10 7 7 5 5 6 8 10 11 11 10 9 10 12 12
16 15 15 16 18 17 16 15 13 13 13 12 12 12 12 13 12 11 12 10 10 11 12 11 10 10 10 9 9 9 10 8 3 2 2 2 2 3 3 2 1 2 3 2 2 3 4 7 4 0 2 1 1 1 1 3 4 5 8 10 9 8 9 10 10 9 9 7 8 10 9 7 6 5 5 5 7 9 10 11 10 9 10 11 12
16 16 15 16 18 19 16 16 16 14 13 12 13 13 12 12 12 11 11 10 10 11 11 12 11 11 10 9 9 9 8 8 6 4 5 4 4 5 5 3 2 3 3 2 0 3 5 6 7 4 4 4 3 3 2 2 3 6 7 7 9 9 9 10 11 10 9 7 6 8 8 7 6 6 5 5 5 7 8 10 11 10 10 10 11
17 17 18 17 18 19 17 17 18 16 14 13 13 13 12 12 12 11 11 11 11 12 11 11 11 11 11 9 9 9 9 8 9 7 6 4 4 5 6 5 3 4 4 2 3 6 9 7 6 5 5 7 5 3 4 5 4 5 6 6 9 11 11 13 13 12 10 8 6 6 7 6 6 6 6 5 5 6 7 8 10 10 10 10 10
19 18 19 20 19 19 17 17 18 17 15 15 14 14 13 13 12 11 11 12 12 12 11 12 12 11 12 12 10 10 11 11 12 11 9 7 6 5 6 6 6 7 8 6 6 9 11 8 7 8 7 8 6 4 6 7 5 5 6 8 10 10 11 13 13 12 10 9 7 6 5 5 5 6 6 5 5 5 6 7 9 10 10 10 10
19 18 20 21 19 19 18 18 18 18 17 16 15 15 15 14 14 13 12 13 13 13 12 13 14 12 10 12 12 11 11 12 12 12 12 10 9 8 10 11 10 9 10 10 10 10 12 11 10 10 9 8 9 7 7 6 5 6 8 9 10 9 9 11 11 11 11 9 8 7 6 5 5 6 6 6 5 5 5 6 7 9 10 11 11
21 20 20 21 19 19 19 19 19 19 19 18 17 17 16 15 15 15 14 14 14 15 14 14 14 13 10 11 12 12 12 12 12 12 12 12 11 11 13 14 15 14 13 13 14 14 14 13 11 11 11 10 11 10 9 9 8 8 9 10 9 10 11 10 9 9 10 10 9 8 7 6 5 6 7 6 5 5 5 5 6 8 10 11 11
22 22 22 21 20 20 20 20 20 20 20 20 19 19 18 17 16 16 15 15 15 16 16 15 14 14 13 12 12 12 12 12 14 14 13 13 14 14 13 12 14 16 17 16 16 17 16 13 12 12 12 12 13 12 12 12 11 10 10 9 9 10 11 11 10 9 9 9 10 10 9 8 7 7 8 8 6 5 4 5 6 7 9 10 10
23 23 24 23 22 22 22 21 20 20 20 21 20 19 19 18 17 16 15 16 16 16 16 15 15 15 15 15 14 13 13 14 15 15 14 14 15 15 14 11 10 12 15 14 12 12 13 12 12 12 12 12 13 14 13 13 13 11 10 10 10 10 10 11 11 10 9 9 10 11 11 11 10 9 9 9 9 7 6 5 5 6 7 9 10
23 24 25 25 24 24 24 22 21 21 20 20 21 20 19 19 18 17 17 16 16 16 16 15 15 16 16 16 16 15 15 16 16 15 15 15 15 16 15 14 12 10 11 11 11 11 12 13 14 14 14 14 15 16 14 13 14 14 13 13 13 12 11 11 11 11 11 11 11 11 12 12 12 11 11 11 11 10 9 7 6 5 6 7 8
25 25 26 27 26 25 25 25 24 23 21 20 20 21 20 19 19 19 19 18 18 18 18 17 17 17 18 18 17 17 17 18 17 16 16 16 16 15 15 15 14 13 12 12 12 13 15 16 16 16 16 16 16 16 14 12 13 15 15 15 15 14 12 10 11 13 12 12 12 13 13 13 14 14 14 13 13 12 12 11 8 6 5 5 6
27 26 27 28 29 27 26 27 26 25 24 23 22 22 21 20 20 21 21 20 20 20 20 20 19 19 19 19 19 19 19 19 19 19 18 18 18 18 17 16 16 16 16 15 15 14 15 16 17 17 17 17 16 15 14 13 14 15 15 15 16 17 16 12 12 12 12 12 13 14 15 15 16 17 16 15 15 14 14 14 12 9 6 5 5
30 28 27 28 30 31 29 28 28 28 27 27 26 25 24 23 23 23 22 22 22 22 22 22 21 21 20 20 20 21 20 19 19 20 20 20 19 20 20 19 18 18 18 18 18 17 16 16 16 16 16 17 16 15 15 15 16 18 19 18 18 20 18 14 12 11 12 13 13 14 16 17 17 18 17 17 16 16 15 15 15 13 10 7 5
26 27 27 25 27 32 32 29 29 30 29 29 28 28 28 28 27 26 25 24 23 24 24 23 23 22 22 21 21 21 21 21 21 21 22 22 22 21 20 20 20 20 20 20 20 20 19 19 19 18 16 17 18 17 17 18 18 19 20 20 20 20 18 15 14 15 15 14 13 14 16 16 17 18 18 19 19 18 18 18 17 15 13 11 9
20 22 23 21 20 26 32 32 31 30 30 29 28 29 29 29 29 29 29 28 26 25 25 25 25 24 23 23 23 22 21 21 22 23 24 24 24 23 22 22 22 21 21 22 23 22 21 21 21 20 19 20 22 21 20 20 20 20 21 20 17 16 16 15 14 15 15 14 14 16 17 17 17 19 20 20 20 20 20 20 19 17 16 15 13
15 18 20 19 14 14 20 27 30 31 31 30 29 28 28 29 30 30 30 30 29 28 26 26 26 26 25 25 24 24 22 21 21 22 23 24 25 26 25 24 24 24 24 23 24 23 22 22 22 22 22 23 24 23 22 22 20 19 19 18 14 12 13 13 14 14 14 14 15 17 20 19 18 19 20 21 21 21 21 21 21 20 19 19 17
10 13 15 17 15 12 11 15 20 24 27 29 29 28 26 27 29 30 31 31 31 31 30 28 27 27 28 28 27 26 26 25 24 23 23 24 26 27 29 28 27 27 27 27 26 25 24 23 23 24 25 25 25 26 26 24 22 21 20 20 19 16 14 14 15 17 18 17 16 18 21 22 19 18 21 22 23 23 22 22 22 21 22 21 19
9 11 12 14 16 16 15 14 14 14 16 20 24 26 27 28 29 30 32 32 32 32 32 31 30 29 29 30 30 30 29 29 28 27 27 27 26 26 28 30 32 31 30 30 30 29 29 28 27 29 30 29 29 30 30 27 25 25 25 24 23 21 19 18 20 22 23 22 20 18 20 23 21 20 23 26 25 25 24 22 22 22 23 23 21
8 10 11 14 15 17 18 18 18 17 14 11 12 14 18 22 26 30 33 35 33 33 32 32 32 32 31 30 31 32 32 32 32 31 30 30 29 28 27 28 31 33 33 33 32 32 32 32 32 34 35 35 35 36 36 33 30 29 28 26 24 22 21 22 23 24 25 25 22 18 18 22 24 24 27 29 27 26 25 23 22 22 23 24 23
8 10 11 13 14 16 17 17 18 19 18 14 12 10 10 12 17 23 31 34 33 31 32 32 32 32 32 31 31 31 31 32 33 32 32 32 32 32 30 29 29 31 33 34 33 33 33 32 32 33 33 34 36 37 38 37 36 35 32 27 25 24 23 23 23 26 28 27 24 21 20 22 24 26 28 28 26 26 26 24 22 21 22 24 24
9 10 11 11 12 14 15 15 15 16 16 16 16 15 13 13 13 15 19 24 26 27 29 31 32 32 31 31 31 30 29 30 29 29 30 30 31 33 33 32 31 31 32 32 32 32 32 31 31 30 29 29 29 30 32 33 35 37 33 27 27 28 25 20 20 24 26 27 27 24 21 22 24 24 25 25 24 23 23 23 24 23 22 23 24
7 8 9 9 10 10 11 11 11 10 9 12 16 19 21 21 19 16 16 18 21 26 29 30 31 32 33 33 33 32 33 33 33 32 30 28 29 31 32 32 31 31 32 32 30 30 30 29 29 28 28 27 27 28 30 29 31 34 33 32 32 30 25 21 22 23 23 28 31 25 21 24 23 22 22 20 18 20 22 22 23 23 23 24 25
6 6 7 8 9 9 9 9 9 9 10 12 14 18 22 22 20 20 21 21 21 24 28 30 30 31 33 34 34 34 35 35 35 35 34 32 31 32 32 32 32 33 34 32 30 30 30 29 29 29 29 28 27 28 29 29 29 32 34 36 35 32 28 26 26 20 14 22 31 25 21 24 25 22 21 15 10 13 18 21 23 23 24 25 26
Wind_Direction
131 129 127 128 135 141 137 136 139 140 144 148 147 143 140 151 163 161 155 151 144 142 143 145 136 136 153 159 152 149 150 140 123 127 151 168 173 172 172 169 169 173 168 163 169 171 164 165 180 197 197 193 206 211 217 238 275 58 81 67 18 18 14 353 358 357 347 349 356 1 356 356 357 353 351 347 348 341 329 325 308 300 266 238 132
131 132 134 142 150 145 134 137 142 139 136 139 139 136 132 138 150 158 158 156 152 151 149 152 154 146 145 154 158 158 164 167 146 120 128 152 170 172 171 172 178 177 170 174 179 179 176 183 199 212 213 221 237 246 243 251 285 344 32 350 340 344 323 329 348 346 335 334 338 342 334 332 338 334 335 336 335 330 321 318 312 296 276 261 186
141 147 148 150 151 142 134 135 139 136 127 129 130 130 135 139 151 154 155 162 164 161 154 151 157 156 152 155 159 163 181 186 168 126 105 119 143 157 163 164 168 163 159 173 169 164 168 190 207 210 222 254 272 272 259 263 293 301 299 295 304 299 297 323 336 332 321 318 324 325 320 319 321 319 322 326 325 325 317 313 310 298 289 284 276
151 153 151 150 147 140 137 135 133 133 123 126 126 126 133 134 142 139 135 147 152 151 150 146 144 149 159 165 163 162 174 184 178 143 101 98 115 120 125 126 124 129 135 133 125 112 134 204 214 223 249 268 285 292 281 274 276 271 269 283 295 292 297 318 318 317 310 311 319 315 316 315 310 308 308 310 311 311 306 294 294 297 302 310 290
151 149 147 147 144 139 139 136 133 140 138 136 132 130 135 136 141 141 139 141 143 149 150 148 144 147 152 155 164 167 175 184 181 159 116 104 112 105 98 97 91 99 101 100 109 96 94 325 319 290 290 291 299 308 308 301 284 276 273 281 288 287 295 300 292 295 300 303 307 302 309 312 305 303 299 297 296 291 289 282 284 294 299 300 294
151 149 150 149 146 143 145 143 140 147 148 145 141 142 147 151 156 155 159 155 151 158 155 146 145 151 151 150 162 160 172 183 183 172 137 104 87 91 99 95 75 81 79 72 81 72 68 34 3 350 341 336 334 340 341 332 318 305 290 284 288 289 291 292 288 289 295 298 300 298 299 305 308 311 305 300 297 290 287 287 286 288 288 293 296
153 154 155 152 149 147 150 151 150 148 142 137 140 154 161 160 152 143 152 148 141 148 147 144 140 145 150 151 152 132 138 168 179 182 156 105 352 167 171 120 40 20 48 82 84 72 61 56 46 28 14 8 358 359 358 349 343 330 314 305 300 296 292 292 295 299 306 309 315 321 316 314 316 318 317 312 306 302 302 299 293 291 287 288 288
153 153 152 152 150 147 146 146 150 147 140 138 138 149 160 158 141 129 126 116 118 127 134 144 141 141 151 141 139 145 137 148 162 171 164 206 225 201 234 241 312 345 97 117 102 81 65 65 61 48 37 29 23 13 8 1 354 345 334 329 319 313 312 308 315 322 325 329 333 336 334 331 328 325 324 321 315 311 310 306 301 301 297 291 290
154 150 149 154 151 145 143 145 150 148 143 139 128 127 140 146 134 127 128 119 122 135 142 155 146 139 147 139 139 158 154 150 159 170 181 198 206 208 220 220 241 297 148 138 124 97 66 64 54 46 47 43 38 31 26 21 10 0 352 349 343 341 341 336 339 340 336 338 338 337 338 337 335 332 328 323 319 314 310 305 305 308 305 300 295
156 154 153 155 153 147 145 150 153 147 141 137 130 130 135 134 127 126 132 131 134 135 136 157 153 146 146 139 146 161 157 165 175 185 192 192 203 211 212 215 221 232 219 196 172 177 66 61 43 34 44 40 35 36 35 30 24 17 7 2 359 356 355 351 349 344 339 338 335 334 334 333 329 327 323 318 314 311 308 305 305 306 303 302 295
160 162 158 156 157 154 147 148 152 147 142 140 137 143 144 135 125 122 124 130 134 113 92 104 124 134 143 139 139 155 163 174 184 198 204 198 194 197 212 222 220 226 230 223 216 212 89 66 62 33 34 27 23 27 28 25 24 23 16 10 7 5 3 359 355 349 344 338 334 330 325 322 318 314 312 311 309 307 305 302 303 302 299 297 291
165 168 165 160 160 158 153 151 155 157 153 145 137 139 150 149 133 121 120 124 130 118 101 97 109 118 128 137 143 168 190 199 202 209 213 212 201 191 213 225 218 209 223 220 218 216 93 63 63 42 40 22 10 8 7 6 13 17 16 14 15 15 13 9 3 355 346 336 328 323 317 313 310 308 307 306 305 305 304 302 301 297 291 289 286
165 168 169 167 164 162 157 156 162 165 162 153 142 137 147 157 147 137 128 120 122 118 116 125 127 132 144 156 160 186 206 211 223 227 228 224 214 197 199 218 218 188 196 210 213 219 210 39 12 42 40 9 2 358 351 347 357 8 9 10 14 12 8 2 354 344 334 326 321 317 315 312 310 311 311 312 311 310 310 310 309 302 292 287 285
165 165 168 169 169 167 160 162 167 167 165 159 153 143 143 152 150 156 153 131 116 116 137 144 145 173 179 174 178 207 216 218 236 240 240 231 220 210 196 208 212 181 160 186 204 221 228 271 278 304 324 335 351 351 345 340 345 357 1 2 2 360 356 351 343 335 327 323 322 321 320 320 319 320 322 325 329 329 327 328 327 321 309 298 291
169 167 166 168 173 169 165 169 169 166 161 160 164 158 151 159 161 169 177 162 126 144 177 203 197 179 165 143 202 225 230 238 243 243 252 243 224 214 196 193 195 177 151 159 193 218 218 208 288 302 303 327 7 8 355 342 335 346 356 356 354 351 347 344 342 340 339 337 338 338 336 335 335 336 339 345 351 353 351 352 351 347 339 328 315
175 171 165 167 171 169 169 169 170 174 164 159 166 167 166 179 186 190 196 205 186 166 188 202 135 159 139 258 227 45 265 269 260 241 250 236 221 212 192 187 189 185 171 160 177 194 198 199 255 337 97 68 38 23 359 344 334 342 353 354 351 347 342 345 351 356 359 1 0 359 356 353 353 355 358 3 6 3 358 0 4 2 359 354 350
177 173 167 168 171 174 175 169 172 181 173 167 168 170 176 184 196 201 205 233 225 174 176 160 152 136 75 234 87 45 240 287 304 251 241 204 214 214 189 187 189 187 187 186 182 180 190 204 190 94 86 73 37 10 338 335 336 342 353 352 347 347 349 356 5 11 13 12 10 8 7 7 8 8 8 9 5 357 352 356 3 3 1 359 359
178 173 171 175 176 178 179 174 178 179 175 178 175 178 187 191 204 204 193 210 229 194 180 147 175 166 164 254 242 288 268 291 19 281 342 144 191 190 180 187 180 177 193 198 191 189 201 217 182 106 62 51 35 13 334 312 319 331 348 349 351 359 5 9 13 17 16 12 10 9 11 12 11 7 2 359 354 350 351 356 359 359 1 5 7
179 174 174 183 182 181 182 182 184 179 178 184 181 182 189 195 207 203 189 183 199 199 184 191 202 193 253 294 275 284 307 312 37 83 4 90 160 169 183 193 171 167 190 190 193 202 211 220 199 124 60 52 32 9 341 304 316 340 348 348 2 13 15 16 15 16 13 7 6 6 8 7 5 0 354 350 349 353 357 356 358 3 8 13 19
179 178 180 187 184 182 184 184 184 179 183 187 180 180 187 196 201 197 192 193 200 187 165 188 202 216 276 304 280 297 337 320 331 64 102 77 134 164 176 182 175 176 187 191 201 209 203 206 211 181 88 59 42 27 21 21 9 358 354 357 12 16 17 17 13 11 7 2 1 0 2 2 1 358 351 349 352 358 0 360 5 10 9 9 14
184 185 189 191 185 181 181 182 182 180 184 183 176 184 197 195 194 195 196 198 203 200 179 186 195 258 273 270 267 325 342 331 341 18 78 97 0 317 145 158 174 177 186 194 187 174 178 191 216 196 118 81 118 129 354 0 1 352 358 10 17 15 18 17 12 10 5 1 359 358 360 0 359 356 351 352 358 3 9 12 11 8 5 6 11
186 190 192 188 181 183 185 184 185 186 186 181 181 195 198 194 197 199 197 200 204 206 209 209 174 317 270 262 263 317 336 337 6 24 33 69 38 323 35 130 130 111 156 175 150 122 151 158 181 174 138 104 139 275 317 335 343 346 2 16 19 16 19 19 18 15 7 2 1 359 359 357 354 354 355 2 11 20 24 18 9 5 7 9 13
186 190 188 184 184 187 194 195 192 194 190 186 192 192 193 201 206 200 193 197 197 198 216 215 192 176 248 266 247 253 298 301 323 17 38 35 39 341 353 105 142 109 139 163 155 143 151 133 140 153 148 18 343 316 310 323 323 337 6 16 16 14 18 19 20 19 11 8 5 359 358 357 356 1 11 27 34 31 24 15 9 8 11 11 9
192 191 184 187 194 187 194 203 198 197 196 196 193 185 198 212 203 195 196 199 196 194 213 211 202 218 248 251 233 248 287 292 295 305 0 344 334 334 353 37 150 144 155 162 166 173 157 146 150 153 176 299 311 306 308 321 316 342 6 11 8 8 15 16 18 19 14 12 8 3 2 4 8 20 36 46 40 27 17 13 11 9 9 6 2
197 195 188 191 198 186 193 209 203 197 198 197 192 185 197 205 197 199 203 204 201 201 210 207 206 231 250 259 272 292 304 303 296 273 246 280 296 317 5 58 61 41 186 184 180 176 156 153 167 187 207 255 278 295 324 315 273 345 1 4 358 356 8 12 14 17 15 13 10 10 13 16 25 38 48 44 32 21 13 9 10 9 5 359 355
198 197 190 195 204 193 197 211 204 199 199 194 196 194 194 197 199 204 206 208 205 204 210 202 207 236 243 263 292 294 301 326 329 276 236 227 61 30 22 53 49 36 0 220 198 192 171 166 187 212 200 260 284 285 310 305 266 317 346 358 352 343 357 6 9 12 15 16 12 15 21 20 29 42 42 36 26 16 10 8 9 6 358 353 352
204 202 194 199 208 198 200 208 199 198 200 196 200 200 194 194 197 198 203 211 207 209 216 204 209 234 234 254 284 274 282 341 13 1 205 141 93 48 31 37 39 29 359 283 210 199 179 176 189 207 209 260 292 280 276 296 301 292 320 348 348 335 339 353 359 1 11 18 15 16 21 19 26 38 36 30 22 14 11 10 8 1 354 351 352
208 206 202 204 206 200 202 205 201 203 204 202 203 200 197 196 197 197 198 207 209 211 217 210 213 227 231 250 266 267 278 325 19 21 87 125 128 72 40 51 68 32 352 344 332 25 123 162 187 197 175 140 95 91 164 263 293 279 306 338 342 333 326 334 344 344 357 15 19 18 19 18 19 25 29 24 18 14 12 11 7 359 354 352 351
210 209 209 207 203 202 205 205 206 210 209 205 202 200 202 204 204 202 197 200 209 211 214 217 221 228 234 248 255 261 272 285 352 5 27 100 125 156 56 47 74 113 55 357 321 343 51 78 179 197 195 165 119 66 148 249 272 270 305 328 335 335 321 318 326 327 337 3 19 19 17 16 13 14 19 19 17 15 12 10 6 359 354 352 351
210 210 208 203 198 202 207 206 209 214 212 208 205 205 210 213 215 211 202 201 210 214 214 215 223 231 232 240 251 256 262 261 267 332 314 315 325 269 246 286 290 184 137 107 297 300 7 31 46 237 264 234 249 296 252 246 261 278 306 321 331 332 319 312 313 313 320 341 10 19 17 13 7 7 12 13 14 16 14 10 5 359 355 350 350
205 205 205 200 198 203 205 206 212 216 215 212 210 210 213 217 217 211 206 204 211 217 216 214 219 227 228 234 246 246 249 250 243 271 289 286 295 270 233 228 236 190 160 126 217 279 307 355 12 357 341 339 300 265 253 270 293 294 297 316 329 321 307 302 303 303 306 315 347 8 15 16 5 1 6 10 11 13 15 14 7 0 355 349 348
202 204 208 204 201 206 206 207 212 215 214 214 215 213 214 219 218 212 209 210 214 220 220 219 221 225 225 230 237 229 225 239 243 253 268 259 268 260 225 215 220 223 243 242 225 266 289 314 325 311 324 337 316 255 271 295 306 295 287 311 324 315 303 299 296 295 295 298 317 342 2 15 8 358 359 5 9 10 13 15 12 4 355 349 347
202 206 209 206 205 209 209 209 213 214 215 215 217 220 219 222 223 220 217 217 220 223 222 223 227 234 232 227 232 230 224 235 243 246 251 247 249 252 236 239 252 249 252 253 250 270 285 295 301 296 302 322 318 296 302 301 290 291 295 305 314 313 310 305 297 289 287 287 294 311 337 1 7 358 355 358 3 5 8 12 14 9 360 351 346
202 205 206 204 206 211 211 212 213 215 217 216 217 222 224 225 225 225 225 225 226 225 224 226 230 238 235 225 230 238 236 239 242 243 250 246 240 245 244 244 249 246 244 247 247 255 271 280 293 295 291 300 305 303 315 313 297 303 306 303 303 302 307 309 301 290 285 283 282 289 309 335 350 348 344 348 353 355 0 5 11 11 5 355 346
205 207 207 205 207 212 213 214 216 217 220 218 216 220 226 229 227 224 225 229 230 227 226 229 230 232 233 230 232 234 235 240 241 241 245 241 239 250 253 244 239 237 237 242 243 241 250 263 276 284 283 287 291 291 297 300 296 297 298 298 298 293 295 302 300 292 289 285 280 279 292 309 323 330 328 330 339 344 349 356 4 9 7 0 351
208 210 212 209 209 214 215 216 220 222 223 220 215 218 225 230 231 229 225 228 234 233 229 229 231 230 231 233 235 234 233 237 241 243 240 237 242 254 261 254 246 244 240 242 247 244 243 253 265 276 283 288 290 291 294 296 296 294 290 292 298 293 289 290 289 290 291 286 281 281 288 294 299 310 312 311 317 323 330 343 353 0 4 1 355
211 211 213 213 212 215 218 218 221 223 225 224 220 219 223 228 234 236 231 231 237 238 234 233 231 232 234 233 234 234 234 235 242 246 238 235 246 255 260 260 258 252 244 242 249 245 243 254 267 276 285 290 292 293 295 296 297 295 287 281 284 285 288 288 283 278 276 277 280 283 288 289 288 295 298 298 302 304 303 317 334 345 355 358 357
215 213 213 215 216 216 217 218 221 224 226 227 226 224 223 227 233 237 235 235 237 239 240 238 234 235 238 238 238 238 236 235 240 242 238 239 249 254 257 260 261 259 255 254 257 257 259 266 272 277 281 285 288 292 297 297 291 289 286 281 279 281 290 292 278 264 262 271 281 286 288 286 283 286 288 286 290 293 291 291 303 322 337 347 356
216 218 214 214 218 218 218 219 221 223 225 227 229 228 226 228 232 236 237 237 237 237 238 239 239 240 241 242 242 242 241 241 242 242 241 244 248 248 251 257 261 264 267 266 264 266 268 266 265 268 274 280 284 288 297 301 292 285 281 276 274 278 287 287 269 258 257 266 276 279 279 278 277 279 280 277 279 286 287 283 284 294 311 328 347
213 219 217 214 215 217 220 221 220 221 223 226 229 229 229 228 229 234 238 237 238 237 237 239 240 242 244 244 245 245 244 244 246 246 245 245 246 248 248 250 253 257 262 263 263 265 264 260 257 260 267 273 276 278 286 291 288 282 278 274 275 280 285 281 263 254 258 267 272 273 272 271 272 274 275 273 274 278 280 279 276 275 278 294 328
210 216 219 218 215 215 218 221 221 221 221 224 227 228 230 230 228 232 236 237 237 237 238 241 241 243 245 246 248 250 250 248 248 248 247 245 245 247 247 246 246 248 253 256 257 257 257 258 260 262 264 264 266 271 277 279 279 280 282 281 277 279 281 272 251 247 263 270 267 267 271 273 273 273 271 272 274 275 274 273 272 271 266 265 288
209 212 218 221 219 216 217 218 220 220 220 223 226 228 230 231 230 230 233 236 237 236 238 240 242 244 246 246 249 252 254 255 254 252 250 248 245 245 245 246 246 246 247 249 250 251 251 252 255 259 262 263 264 267 269 273 276 279 281 280 276 276 271 255 244 252 262 262 257 262 271 274 272 269 268 273 277 276 273 271 270 268 261 256 263
209 210 216 223 223 220 218 218 219 219 220 223 227 230 232 233 233 232 233 235 236 237 238 238 241 245 246 247 249 250 252 255 257 259 258 254 251 249 246 245 246 246 246 246 247 248 247 248 250 253 255 260 264 265 265 269 272 273 277 277 274 271 262 248 247 254 254 254 261 269 272 271 267 266 270 276 280 279 278 276 271 263 256 254 255
216 213 216 222 228 225 220 221 221 220 221 224 227 230 233 236 237 237 236 237 238 240 240 240 241 243 245 246 248 248 249 252 256 262 264 261 257 254 251 248 247 247 248 247 247 248 247 247 249 251 252 256 261 264 263 264 267 270 273 273 268 264 258 248 243 248 256 267 274 275 276 274 266 260 266 276 280 280 283 283 274 261 251 250 251
243 232 227 229 235 238 235 229 226 225 226 228 229 230 233 238 239 239 239 240 241 243 244 246 246 246 246 246 248 249 250 251 254 259 264 265 263 259 255 251 249 249 249 250 250 251 250 250 250 253 255 255 257 260 261 261 262 265 267 269 269 267 263 254 252 262 276 282 278 275 277 278 270 257 262 276 281 279 280 282 277 264 251 246 247
274 259 250 246 248 251 254 254 250 246 240 237 237 237 237 239 241 241 240 240 242 243 245 247 249 250 251 250 250 252 253 254 256 258 261 266 268 267 260 254 251 251 251 252 253 252 252 252 252 254 258 257 257 261 264 262 259 260 262 265 267 268 268 269 273 278 281 279 276 272 271 275 274 266 268 276 279 276 276 279 277 267 253 245 245
288 277 268 264 262 260 262 265 268 270 269 270 270 263 255 252 252 249 245 241 240 242 244 247 249 250 252 254 255 256 257 258 258 258 259 262 266 270 269 263 259 257 255 255 256 256 256 256 256 258 261 262 261 263 265 263 259 259 261 263 267 272 276 277 277 277 277 275 272 263 259 268 273 272 274 279 280 277 275 273 271 264 252 244 244
290 288 284 283 281 277 274 276 277 275 278 292 308 316 316 301 281 265 254 246 243 244 244 246 248 249 251 253 256 258 259 259 260 259 259 259 260 263 266 267 268 265 262 262 261 260 261 261 262 264 267 268 268 268 269 268 264 263 262 263 267 271 273 274 273 272 273 273 270 261 256 265 272 271 274 279 278 275 273 269 266 261 250 243 242
295 294 293 295 296 294 292 292 293 290 288 290 290 289 292 299 297 285 269 259 258 258 256 252 249 248 249 250 253 256 259 261 263 264 263 260 258 258 259 261 264 265 266 267 266 264 262 262 264 268 271 273 272 271 271 271 270 267 262 259 263 265 266 267 267 268 270 271 272 269 260 263 270 270 273 278 276 271 268 266 264 260 250 242 240
307 302 294 288 286 291 298 301 303 304 292 278 275 270 265 265 268 270 272 270 265 262 262 261 257 253 250 250 251 253 256 260 263 266 268 265 261 259 257 257 257 258 260 263 264 265 264 263 264 265 267 269 270 270 270 269 270 268 261 258 261 261 259 259 260 266 271 271 272 269 258 258 264 266 270 275 272 263 258 257 257 256 248 240 236
333 318 298 285 278 278 283 284 287 293 285 273 268 264 263 269 272 270 268 269 267 262 258 258 261 261 256 253 252 253 255 258 260 263 266 267 265 263 259 256 254 255 257 258 258 260 262 262 264 264 265 267 269 271 271 268 268 266 262 261 261 258 254 254 257 260 265 270 271 264 249 253 260 263 266 269 263 256 251 244 243 245 243 240 236
Height
859 860 861 862 863 864 865 865 866 867 867 868 868 868 868 869 870 870 870 871 872 873 873 873 874 874 874 874 874 874 874 875 875 876 876 876 876 876 876 876 877 877 877 877 877 877 877 877 877 876 876 876 875 875 874 874 874 874 874 874 873 873 873 873 873 872 872 871 871 870 870 869 869 868 867 867 866 865 865 864 863 863 862 862 863
859 860 861 862 863 864 865 866 867 867 868 868 869 869 869 870 870 870 871 872 872 872 873 873 873 874 874 874 874 874 874 875 875 876 876 876 876 876 876 876 877 877 877 877 877 877 876 876 876 876 875 875 874 874 874 874 874 873 873 873 873 873 873 873 872 872 871 871 870 870 869 869 868 867 867 866 866 865 864 864 863 862 861 862 863
860 861 862 863 864 865 865 866 867 868 868 869 869 870 870 870 871 871 872 872 873 873 873 874 874 874 874 875 875 875 875 875 876 876 876 876 876 876 876 877 877 877 877 877 877 876 876 876 875 875 875 874 874 874 874 874 874 873 873 873 873 873 873 872 872 871 871 870 870 869 868 868 867 867 866 866 865 864 864 863 862 860 860 862 863
860 861 862 863 864 865 866 866 867 868 868 869 870 870 870 871 871 871 872 872 873 873 874 874 874 874 874 875 875 875 875 876 876 876 876 876 876 877 877 877 877 877 877 877 877 876 876 876 875 875 874 874 873 874 874 874 873 873 873 873 873 872 872 872 872 871 870 869 869 868 868 867 867 866 866 865 864 864 863 863 861 860 861 862 862
861 862 863 863 864 865 866 866 867 868 869 869 870 870 870 871 871 871 872 872 873 873 874 874 874 874 875 875 875 875 875 876 876 876 876 876 877 877 877 877 877 877 877 876 876 876 876 875 875 874 874 874 873 873 873 873 873 872 873 872 872 872 871 871 871 870 869 869 868 868 867 866 866 865 865 864 863 863 862 862 861 861 861 862 862
861 862 863 864 864 865 866 866 867 868 869 869 869 870 870 870 871 871 872 872 873 873 874 874 874 875 875 875 875 876 876 876 876 876 876 876 876 877 876 877 877 877 877 876 876 875 875 875 874 874 873 873 873 873 873 872 872 872 872 871 871 871 871 870 870 869 868 868 867 867 866 866 865 864 864 863 862 861 862 861 861 860 861 861 861
861 863 864 864 865 865 866 867 867 868 868 869 869 870 870 870 871 871 872 872 873 873 874 874 875 875 875 875 876 876 876 876 876 876 876 876 876 876 876 877 876 877 876 876 876 875 875 875 874 874 873 873 873 872 872 872 872 871 871 871 870 870 870 869 869 868 868 867 867 866 865 865 864 864 863 862 861 861 861 860 860 860 860 861 860
862 863 864 865 865 866 866 867 868 868 869 869 870 870 871 871 871 871 872 872 873 873 874 874 875 875 875 876 876 876 876 877 877 876 876 875 876 876 876 876 876 876 876 876 875 875 875 874 874 873 873 873 872 872 872 872 871 871 871 870 870 869 869 869 868 867 867 866 866 865 865 864 864 863 862 862 861 860 860 859 859 859 859 859 859
862 863 864 865 865 866 866 867 868 868 869 869 870 871 871 872 872 872 872 872 873 873 874 874 875 875 875 876 876 876 876 876 877 877 876 876 876 876 875 875 875 875 875 875 875 875 875 874 874 874 873 873 872 872 872 871 871 870 870 870 869 869 868 868 867 867 866 866 865 865 864 864 863 862 861 861 860 860 859 859 858 858 858 858 858
863 863 864 865 865 865 866 867 868 868 869 870 870 871 871 872 872 872 873 873 873 873 874 874 875 875 875 876 876 876 876 876 876 876 876 876 875 875 875 875 875 875 875 875 875 875 875 874 874 874 873 873 873 872 872 871 871 870 870 869 869 868 868 867 867 866 866 865 865 864 864 863 862 862 861 860 859 859 858 858 857 857 857 856 857
863 864 864 865 865 866 867 868 868 869 869 870 871 871 871 872 872 873 873 873 873 873 874 874 875 875 875 876 876 876 876 876 876 875 875 875 875 875 875 874 874 874 874 874 875 875 874 874 874 874 873 873 873 872 872 871 871 870 870 869 869 868 867 867 866 866 865 865 864 863 863 862 862 861 860 859 858 857 857 856 857 856 855 855 855
863 864 864 865 866 866 867 868 869 869 869 870 871 872 872 872 873 873 873 874 874 874 874 874 875 875 875 876 876 876 875 875 874 874 874 874 874 874 874 874 874 874 874 874 874 874 874 874 874 874 873 873 873 873 872 871 871 870 869 869 868 868 867 866 866 865 865 864 864 863 862 862 861 860 859 858 857 856 855 855 855 855 854 853 853
863 863 864 865 865 866 867 868 869 869 870 870 871 872 872 873 873 873 873 873 874 874 874 875 875 875 875 875 875 875 875 874 874 873 873 873 873 873 874 874 873 873 873 873 874 874 874 874 874 873 873 873 873 872 872 871 871 870 869 869 868 867 867 866 866 865 864 864 863 862 861 861 860 859 858 857 856 855 854 853 853 853 852 851 851
863 863 864 865 865 866 867 868 869 870 870 870 871 872 872 873 873 873 873 873 874 874 874 874 875 875 874 875 875 874 874 873 873 873 872 872 872 872 873 873 873 873 873 874 873 874 874 874 873 873 873 873 873 872 872 871 870 870 869 869 868 867 867 866 865 864 863 863 862 861 860 860 859 858 857 855 854 854 853 852 851 851 850 850 850
864 864 865 865 866 867 867 868 868 869 870 870 871 872 873 873 874 874 873 873 873 874 874 874 874 874 874 875 875 875 875 873 872 872 871 871 871 871 872 872 872 873 873 873 873 873 874 873 873 873 873 873 872 872 871 871 870 869 869 868 868 867 866 865 864 863 863 862 861 860 859 859 858 857 856 855 854 853 852 851 850 849 849 849 848
864 864 865 865 866 867 867 867 868 869 870 870 871 872 873 873 873 874 873 873 873 873 874 874 874 873 874 876 875 877 879 874 870 871 870 870 870 870 872 871 872 873 873 873 873 873 873 873 873 873 873 872 872 872 871 870 870 869 869 868 867 867 866 865 864 863 862 861 861 860 859 858 857 856 855 854 853 852 851 850 849 849 848 847 847
863 864 865 865 866 866 867 867 868 869 870 870 871 872 872 873 873 873 873 873 873 873 873 873 874 873 873 875 876 879 879 873 870 870 869 869 869 870 871 871 871 872 872 873 873 873 873 873 873 873 873 872 872 871 870 870 870 869 869 868 868 867 866 865 864 863 862 861 860 859 858 857 856 856 855 854 853 851 850 850 849 848 847 847 846
863 864 865 865 866 866 867 868 868 869 870 871 871 872 872 873 873 873 873 873 873 873 873 873 873 873 873 873 875 876 874 871 872 872 869 867 868 869 870 869 870 871 872 872 872 872 872 873 873 873 872 872 871 871 870 870 870 870 869 868 868 867 866 864 863 863 862 861 860 859 858 857 856 855 854 853 852 851 850 849 848 848 847 846 846
864 864 865 865 866 867 867 868 869 869 870 871 871 872 872 873 873 873 873 873 873 873 873 873 873 873 873 873 872 872 871 871 871 873 873 870 868 869 869 869 871 871 871 871 871 871 872 872 873 873 872 872 871 871 871 870 870 870 869 869 868 867 866 864 864 863 862 861 860 859 858 857 856 855 854 853 852 851 850 849 848 848 847 846 845
864 864 865 866 867 867 868 868 869 869 870 871 871 872 872 872 872 873 873 873 874 874 873 873 873 873 873 873 872 871 871 870 870 871 873 874 871 869 869 870 871 871 871 871 871 871 871 872 872 872 872 872 871 871 871 871 871 871 870 869 869 868 866 865 864 863 862 861 860 859 858 857 856 855 854 853 852 851 850 849 848 847 847 846 845
864 865 865 866 867 868 868 868 869 869 870 870 871 871 871 872 872 873 873 873 874 874 874 874 874 874 873 872 872 871 870 870 870 870 870 873 873 870 869 870 870 871 871 871 872 871 871 872 872 872 872 872 872 872 872 871 871 871 870 870 869 868 867 865 864 863 862 861 860 859 858 857 856 855 854 853 852 851 850 850 849 848 847 846 845
864 864 865 866 867 867 867 868 868 869 869 870 870 871 871 872 872 873 873 873 874 874 874 874 874 873 873 872 872 872 872 870 870 870 870 871 872 870 869 869 869 870 871 871 872 872 872 872 872 873 873 873 872 872 872 872 871 871 871 870 869 869 867 866 865 864 863 862 861 859 858 857 856 855 854 853 852 852 851 850 849 848 847 846 845
863 864 865 865 865 866 866 867 868 868 869 870 870 871 871 872 873 873 873 874 874 874 874 874 874 874 873 873 872 872 872 871 871 871 870 870 871 870 870 869 868 869 870 871 872 872 872 872 872 873 873 873 872 872 872 871 871 871 871 870 870 869 868 867 866 864 863 862 861 860 859 858 856 855 854 853 853 852 851 851 849 848 847 846 845
863 863 864 864 865 865 866 867 868 868 869 870 870 871 872 872 873 873 874 874 874 875 874 874 874 874 874 873 873 873 872 872 871 871 870 870 870 870 870 870 869 870 870 871 871 872 872 872 872 873 872 872 872 872 871 871 871 871 870 870 869 869 868 867 866 865 863 862 861 860 859 858 857 856 855 854 854 853 852 851 849 848 847 846 845
861 862 863 864 865 865 866 867 868 869 869 870 870 871 872 872 873 874 874 874 875 875 875 874 874 874 874 874 873 873 873 872 872 871 870 870 870 870 871 871 870 870 870 870 871 872 872 872 872 872 872 872 872 871 871 871 871 871 870 870 869 869 868 867 867 865 864 862 861 860 859 858 857 857 856 855 854 853 852 851 849 848 847 846 845
861 862 863 864 865 866 866 867 868 869 869 870 870 871 872 872 872 873 874 874 875 875 875 874 874 874 874 874 873 873 873 873 872 871 870 870 870 870 871 871 870 870 871 871 871 871 872 872 871 871 872 872 871 871 871 870 870 870 870 869 869 869 868 868 867 866 865 863 862 861 860 859 858 857 857 856 855 854 852 851 849 848 847 846 845
862 863 864 864 865 866 866 867 868 868 868 869 870 871 871 872 872 873 873 874 874 874 875 874 874 874 874 874 873 873 873 873 872 871 870 871 870 871 871 871 872 872 871 871 871 871 871 871 871 871 872 872 871 871 870 870 870 870 870 869 869 868 868 868 867 866 865 864 863 861 860 860 859 858 857 857 856 854 853 851 850 848 847 846 844
862 863 863 864 865 865 866 867 867 868 868 869 870 870 871 871 872 872 873 873 873 874 874 874 874 874 874 874 873 872 872 872 872 872 871 871 870 871 871 872 874 875 874 873 871 871 871 871 871 872 871 871 871 870 870 870 870 870 869 869 869 868 868 867 867 866 866 865 863 862 861 860 859 859 858 857 856 855 853 852 850 849 847 846 845
861 862 862 863 864 865 865 866 867 867 868 868 869 870 870 871 871 872 872 872 873 873 873 873 873 873 873 873 873 872 872 872 872 872 872 871 870 871 871 872 873 875 877 877 874 871 871 872 872 871 871 871 871 870 870 870 870 870 869 868 868 867 867 867 866 866 866 865 864 863 861 861 860 859 858 857 857 855 854 852 850 849 847 846 845
859 860 861 862 863 864 865 865 866 867 867 868 868 869 869 870 870 871 871 872 872 872 872 872 872 873 872 872 872 872 871 871 872 872 871 871 871 871 872 872 872 873 874 877 875 871 871 872 871 871 871 871 871 870 870 869 869 869 869 868 867 867 867 866 866 866 865 865 864 863 862 861 860 859 858 857 857 856 854 853 851 849 848 846 845
858 859 860 861 862 863 864 864 865 866 866 867 868 868 869 869 870 870 871 871 872 871 872 872 872 872 871 872 872 871 871 871 871 871 871 871 871 871 871 872 872 872 872 874 875 872 870 871 871 871 871 871 871 870 869 869 869 869 868 868 867 866 866 865 865 865 865 864 863 863 862 861 860 859 858 858 857 856 854 853 851 850 848 847 845
857 858 859 860 861 862 862 864 864 865 865 866 867 867 868 868 869 869 870 870 871 871 871 871 871 871 871 871 871 871 871 871 870 871 871 871 871 871 871 871 872 872 871 872 873 871 870 870 870 870 870 870 870 869 869 868 868 868 868 867 867 866 865 865 864 864 864 863 863 862 862 861 860 859 858 858 857 856 855 853 852 850 849 847 846
855 856 857 858 859 861 861 862 863 864 864 865 866 866 867 868 868 868 869 869 870 870 870 871 870 870 870 870 870 870 870 870 870 870 870 871 871 871 871 871 871 871 871 871 871 870 869 869 869 869 869 869 869 869 868 867 867 867 867 867 866 865 865 864 863 863 863 863 862 862 861 860 860 859 858 858 857 856 855 853 852 851 849 848 846
854 855 856 857 858 860 860 861 862 863 863 864 865 865 866 866 867 867 868 868 869 869 869 870 869 869 869 869 870 870 870 870 869 870 869 869 870 870 870 870 870 870 870 870 870 870 869 868 869 868 868 868 868 868 867 867 867 866 866 866 865 865 864 863 863 863 862 862 862 862 861 860 859 859 858 857 857 856 855 854 852 851 850 848 846
853 854 855 856 858 859 859 861 861 862 862 862 863 864 864 865 866 866 867 867 868 868 868 868 868 868 869 869 869 869 869 869 869 869 869 869 869 869 869 869 869 869 869 869 869 869 868 868 868 868 867 867 867 866 866 866 866 865 865 865 865 864 863 862 862 862 862 861 861 861 860 860 859 859 858 857 856 856 855 854 853 852 850 849 847
852 853 854 855 856 857 858 859 860 861 861 861 862 863 863 864 864 865 866 866 866 867 867 867 867 867 868 868 868 868 868 868 868 868 868 868 868 868 868 868 868 868 868 868 868 868 868 867 867 867 867 867 866 866 865 865 864 864 864 863 863 863 862 861 861 861 861 861 860 860 859 859 858 858 857 857 856 855 855 854 853 852 850 849 847
850 851 853 854 855 856 857 858 859 859 860 861 861 862 862 863 863 864 865 865 865 865 866 866 866 866 866 866 867 867 867 867 867 867 867 867 867 867 867 867 867 867 867 867 867 867 867 867 866 866 866 866 865 864 864 863 863 862 862 862 862 862 861 860 860 860 860 859 859 859 858 858 857 857 856 856 855 855 854 853 852 851 850 849 848
849 850 851 852 853 854 855 856 857 858 859 860 860 861 862 862 862 863 863 864 864 864 864 864 865 865 865 865 865 866 866 866 866 866 866 866 866 866 866 866 866 866 866 866 866 866 866 865 865 865 865 864 864 863 863 862 861 861 861 860 860 860 860 859 858 858 858 858 858 857 857 856 856 855 855 855 854 854 853 852 852 851 850 849 848
846 847 848 849 850 852 853 854 855 857 857 858 859 859 860 861 861 862 862 862 862 863 863 863 863 863 863 864 864 864 864 864 864 864 865 865 865 865 865 865 865 865 865 865 865 865 864 864 864 864 863 863 863 862 861 861 860 860 859 858 858 858 858 858 857 857 856 856 856 855 855 855 854 854 853 853 853 852 851 851 850 850 850 849 847
843 844 845 846 847 849 850 851 853 854 855 856 857 858 858 859 860 860 860 860 860 860 861 861 861 862 862 862 862 863 863 863 863 863 863 864 864 863 864 864 864 864 864 864 864 864 863 863 863 862 862 861 861 860 860 860 859 858 857 857 856 856 856 856 856 855 855 854 854 853 853 852 852 852 851 851 851 851 850 849 849 849 849 848 847
840 842 843 844 845 845 847 848 849 851 852 853 854 855 856 856 857 858 857 858 858 858 859 859 860 860 860 861 861 861 861 861 862 862 862 862 862 862 862 862 863 863 863 863 862 862 862 861 861 861 860 860 859 859 859 858 857 856 855 855 855 854 854 854 854 854 853 852 852 851 851 850 850 849 849 849 848 848 848 848 847 847 847 846 846
839 840 841 842 843 843 844 845 846 847 848 849 850 851 852 853 854 855 855 855 856 856 857 857 858 858 859 859 859 860 860 859 860 860 859 860 860 860 860 860 861 861 861 861 861 860 860 860 859 859 859 858 857 857 857 856 856 855 854 853 853 852 852 852 852 852 851 850 850 849 848 848 848 847 847 846 846 846 846 845 845 845 845 845 844
838 838 839 841 841 842 843 843 844 845 845 846 847 849 850 851 852 852 853 853 853 854 855 855 856 856 857 857 858 858 859 858 858 858 858 858 858 858 858 858 859 859 859 859 859 859 859 858 857 858 857 856 855 855 855 854 854 853 852 852 851 850 850 850 849 849 849 849 848 846 846 846 846 845 844 844 843 843 842 842 843 843 843 842 842
836 836 838 839 840 842 842 842 843 843 843 844 845 847 848 849 851 851 852 852 852 852 853 853 854 854 855 855 856 856 857 857 857 857 856 856 856 856 856 856 856 856 856 856 856 856 857 856 856 855 855 854 853 853 853 852 852 851 851 850 849 849 848 848 847 847 847 847 846 845 843 843 843 843 842 841 841 840 839 839 839 840 840 840 840
835 835 836 837 838 840 841 842 843 843 843 844 844 845 846 847 849 850 850 851 851 851 852 852 853 853 853 854 854 854 855 855 855 855 855 854 854 854 854 854 854 853 853 853 853 854 854 854 854 853 852 852 852 851 851 851 850 850 849 848 848 847 846 846 845 845 845 845 844 843 841 840 840 840 839 838 838 837 837 837 836 837 837 837 837
834 834 835 835 836 838 838 840 842 842 844 845 845 846 846 846 847 847 848 849 849 850 850 851 851 852 852 852 852 853 853 854 854 854 854 853 853 852 852 851 851 851 851 851 851 851 851 851 851 849 849 849 849 848 848 849 848 848 847 846 846 845 845 844 843 843 842 842 842 841 839 838 838 837 835 835 835 834 834 834 834 834 834 834 835
832 833 834 834 835 836 836 837 838 840 843 845 845 845 846 846 846 846 846 846 847 847 848 848 849 849 850 850 850 851 851 851 852 852 852 852 851 851 850 849 849 848 848 848 848 848 848 847 847 846 846 846 846 845 845 845 845 845 845 845 844 844 843 842 841 840 839 839 840 839 836 835 836 835 833 832 832 831 831 831 831 831 831 831 832
831 831 832 834 834 835 835 836 836 837 840 841 840 841 843 844 845 845 845 845 845 845 845 845 846 846 847 847 848 848 848 848 849 849 850 850 850 849 848 847 847 846 845 845 845 845 844 844 843 843 842 842 842 842 841 842 842 842 842 843 843 842 841 839 838 837 836 836 836 836 834 833 833 832 830 829 829 828 827 827 827 827 828 828 829
830 831 832 833 834 834 834 835 835 837 838 837 837 838 839 839 840 842 842 843 844 844 844 843 843 843 844 844 844 844 844 844 845 846 847 848 847 846 845 845 844 843 841 841 842 841 841 841 840 840 839 838 838 838 838 838 838 839 840 840 840 839 838 837 835 834 833 833 833 833 832 830 829 829 827 826 825 825 824 824 824 824 824 825 826
829 830 831 832 833 833 833 834 834 835 835 834 835 835 834 834 835 835 836 837 837 838 839 840 840 840 840 840 840 840 840 840 842 842 843 844 844 843 843 842 841 839 838 839 839 838 837 837 836 836 835 835 835 834 834 835 835 836 836 836 835 836 835 834 833 831 831 829 828 830 829 826 826 826 825 823 822 821 821 821 821 821 822 822 823
829 830 830 831 831 832 832 833 833 833 833 832 833 832 832 833 833 833 833 832 832 832 833 833 835 835 835 835 835 835 835 836 837 838 839 840 840 839 840 839 837 835 834 836 836 835 834 833 832 831 831 831 831 831 830 831 831 831 831 831 831 832 832 830 830 830 830 825 823 826 826 823 823 823 823 821 820 818 817 818 818 818 819 819 820